Flag for Norway Weather past 2 weeks in Halden, Norway

Now
67 °F

Mild.


Feels Like: 67 °F
Forecast: 50 / 60 °F
Wind: 6 mph from Northwest

Location: Stromtangen Fyr

Current Time: Jul 30, 2015 at 4:33:35 PM

Latest Report: Jul 30, 2015 at 3:00 PM


Visibility: N/A

Pressure: 29.54 "Hg

Humidity: 67%

Dew point: 55 °F

Location of HaldenLocation

Historic Weather in Halden — Graph

°F

Halden temperature yesterday

Maximum temperature yesterday: 61 °F (at 12:00 PM)
Minimum temperature yesterday: 57 °F (at 12:00 AM)
Average temperature yesterday: 58 °F

Past Weeks' High & Low Weather Summary

 TemperatureHumidityPressure
High67 °F (Jul 30, 3:00 PM)96% (Jul 18, 5:00 AM)30.06 "Hg (Jul 18, 5:00 AM)
Low52 °F (Jul 26, 5:00 AM)43% (Jul 16, 2:00 PM)29.35 "Hg (Jul 26, 12:00 PM)
Average59 °F76%29.66 "Hg
* Reported Jul 15 3:00 PM — Jul 30 3:00 PM, Halden, Weather by CustomWeather, © 2015

Note: Actual official high and low records may vary slightly from our data, if they occured in-between our weather recording intervals... More about our weather records

Advertising

Halden weather history for previous 24 hours

 ConditionsComfort  
Time TempWeatherWind HumidityBarometerVisibility
3:00 PM
Thu, Jul 30
67 °FMild.6 mph67%29.54 "HgN/A
2:00 PM66 °FMild.7 mph69%29.50 "HgN/A
1:00 PM64 °FMild.7 mph73%29.50 "HgN/A
12:00 PM65 °FMild.6 mph68%29.50 "HgN/A
11:00 AM63 °FMild.6 mph71%29.50 "HgN/A
10:00 AM62 °FCool.5 mph75%29.50 "HgN/A
9:00 AM60 °FCool.5 mph82%29.47 "HgN/A
8:00 AM57 °FCool.3 mph87%29.47 "HgN/A
7:00 AM55 °FCool.5 mph93%29.47 "HgN/A
6:00 AM55 °FCool.3 mph93%29.47 "HgN/A
4:00 AM56 °FCool.2 mph94%29.44 "HgN/A
3:00 AM57 °FCool.2 mph94%29.44 "HgN/A
2:00 AM57 °FCool.2 mph94%29.44 "HgN/A
1:00 AM57 °FCool.1 mph93%29.44 "HgN/A
12:00 AM58 °FCool.1 mph92%29.44 "HgN/A
11:00 PM
Wed, Jul 29
58 °FCool.2 mph92%29.44 "HgN/A
10:00 PM58 °FCool.1 mph92%29.44 "HgN/A
9:00 PM58 °FCool.3 mph90%29.44 "HgN/A
8:00 PM58 °FCool.7 mph93%29.41 "HgN/A
7:00 PM58 °FCool.6 mph91%29.41 "HgN/A
6:00 PM59 °FCool.2 mph92%29.41 "HgN/A
5:00 PM59 °FCool.2 mph92%29.41 "HgN/A
4:00 PM59 °FCool.2 mph91%29.38 "HgN/A
Weather by CustomWeather, © 2015

See weather overviewHow to use our weather pages